Lid_Strength_Index
-0 2 3 5 9 11 12 12 10 10 9 8 6 7 8 7 9 11 1 0 -0 -0 -1 -1 -1 -2 -2 -2 -2 -2 -2 -2 -2 -2 -2 -2 -2 -2 -2 -2 -2 -2 -2 -2 -2 -2 -2 -2 -2
3 3 4 7 11 13 12 12 11 9 7 6 7 6 7 9 5 4 3 0 -0 -0 -1 -1 -1 -1 -2 -2 -2 -2 -2 -2 -2 -2 -2 -2 -2 -2 -2 -2 -2 -2 -2 -2 -2 -2 -2 -2 -2
5 4 5 9 12 13 14 12 9 9 7 8 7 6 6 7 4 3 1 -0 -0 -0 -1 -1 -1 -1 -2 -1 -2 -2 -2 -2 -2 -2 -2 -2 -2 -2 -1 -2 -2 -2 -2 -2 -2 -2 -2 -2 -2
6 5 7 10 12 11 12 11 9 8 8 7 6 8 5 3 3 2 0 -0 -0 -0 -1 -0 -1 -1 -2 -2 -2 -2 -2 -2 -2 -2 -2 -2 -2 -2 -2 -2 -2 -2 -2 -2 -2 -2 -2 -2 -1
6 7 10 11 12 11 11 10 9 9 9 8 7 8 7 3 1 1 1 -0 0 -0 -1 -1 -1 -1 -1 -2 -2 -2 -2 -2 -2 -2 -2 -2 -2 -2 -2 -2 -2 -1 -2 -1 -1 -1 -1 -1 -1
8 8 12 14 11 10 9 9 9 10 9 7 7 7 7 2 2 1 1 0 -0 -0 -1 -1 1 -0 -1 -1 -1 -2 -2 -2 -2 -2 -2 -2 -2 -2 -2 -2 -2 -1 -1 -1 -1 -1 -1 -1 -0
9 10 12 12 11 11 9 8 9 10 9 8 6 8 6 4 2 1 1 1 -0 -1 -0 -1 -1 -0 1 -0 -1 -1 -1 -2 -2 -2 -2 -2 -2 -2 -2 -2 -2 -1 -1 -1 -1 -1 -1 -1 -1
8 9 11 11 12 12 10 9 8 9 9 6 5 9 7 4 2 2 2 1 0 -0 -0 1 0 -1 -1 -1 1 0 -1 -1 -2 -1 -1 -0 -1 -1 -1 -1 -2 -2 -2 -2 -2 -2 -2 -1 -1
7 11 13 11 12 11 10 9 8 6 6 6 5 6 4 2 3 2 3 2 1 0 -0 1 1 -0 -1 -1 0 1 1 0 0 -0 1 0 -1 -1 -1 -0 -1 -2 -2 -2 -2 -2 -2 -1 -1
10 12 11 9 10 9 10 9 8 7 7 7 6 4 3 3 3 3 4 4 3 2 1 -0 1 1 -0 -0 -1 -1 -1 -1 -1 -1 -1 -1 -1 -1 -1 0 1 -0 -0 -1 -2 -2 -1 -0 -1
10 13 11 9 8 8 9 9 8 8 8 7 7 6 4 4 3 4 3 3 2 1 1 0 -0 -1 0 -0 -0 -0 -0 0 -1 -1 -1 -1 -0 -0 -1 -1 -1 -1 1 -1 -1 0 0 0 0
12 11 10 8 8 8 10 9 9 8 7 5 5 4 4 4 4 4 3 3 3 2 1 0 -0 -0 -1 -1 -0 -1 -0 -0 0 -1 -1 -0 0 -0 0 0 -0 -0 -1 -0 0 1 1 1 1
12 11 10 9 9 9 9 10 9 9 7 5 4 4 5 4 4 3 3 3 2 2 1 1 0 1 -0 -0 -1 -1 -1 -1 -1 -1 -1 -0 0 0 -0 -0 -0 1 1 1 1 1 1 1 1
11 10 11 9 10 9 9 10 9 8 6 5 5 5 5 4 4 3 3 3 3 2 1 1 1 1 1 1 1 0 0 -0 -1 -1 -1 -0 -0 0 1 1 1 1 1 1 1 1 0 0 0
9 11 11 11 10 11 10 11 10 9 6 6 6 5 5 4 3 4 3 3 2 2 1 1 1 1 1 2 2 1 1 1 1 1 1 1 1 1 1 1 1 1 1 1 1 1 1 1 1
11 12 15 13 11 11 12 14 12 10 8 7 6 6 5 5 4 3 3 3 2 2 2 1 1 1 1 1 1 1 1 1 1 1 1 1 1 1 1 1 1 1 1 1 2 2 2 2 2
13 16 15 13 11 11 13 14 12 10 11 9 8 7 6 5 4 4 3 3 2 2 2 2 1 1 1 1 1 1 1 1 1 1 1 1 1 1 1 1 1 1 1 2 2 1 2 2 1
15 14 13 13 12 11 13 13 12 11 10 11 10 10 9 8 6 5 5 4 3 2 2 1 1 1 1 1 2 2 2 1 1 1 1 1 1 1 1 1 1 1 1 1 1 1 0 0 1
12 12 13 12 11 11 12 12 11 11 11 11 11 11 10 9 8 8 8 8 6 3 3 2 2 1 1 2 2 2 2 1 1 0 0 1 1 1 1 1 1 1 1 1 1 1 1 1 1
13 14 14 12 11 11 13 13 11 11 10 10 10 10 10 9 8 8 8 9 8 8 8 6 4 3 2 1 2 1 1 1 1 1 1 1 1 1 1 1 1 1 1 1 1 1 1 1 1
14 15 15 14 12 13 15 15 14 13 12 11 11 10 10 10 9 9 8 8 9 8 7 7 7 7 5 2 2 2 2 2 2 2 2 2 1 1 1 1 1 1 1 1 2 1 1 2 1
14 12 13 13 14 17 15 19 16 15 15 14 13 12 11 11 11 10 10 9 9 8 7 7 7 6 5 6 2 2 2 3 2 2 2 1 2 1 1 1 1 1 1 1 1 0 1 1 2
13 12 13 14 15 16 17 18 17 16 15 14 14 12 12 12 12 11 11 10 8 8 8 7 7 7 7 6 6 4 3 2 2 2 2 2 2 1 1 1 1 1 1 1 1 1 1 1 2
11 12 13 14 16 20 18 18 19 16 15 15 13 12 11 11 11 10 9 8 9 9 9 8 8 9 8 7 7 7 7 6 6 5 4 3 3 3 3 2 1 1 1 1 1 0 0 1 1
12 14 19 21 21 21 19 19 18 15 14 14 14 13 11 11 10 10 9 9 10 10 9 9 9 9 9 8 8 8 8 7 6 6 5 4 4 5 5 5 4 5 6 6 5 4 4 4 4
13 13 18 22 23 22 19 20 18 15 14 13 13 13 12 12 11 10 10 10 10 10 10 10 10 10 10 10 10 9 9 8 8 7 6 5 5 7 7 7 7 7 7 6 6 6 6 6 6
13 15 12 16 20 20 20 19 16 15 14 14 13 12 12 11 11 11 10 10 11 11 11 11 11 11 11 11 11 10 10 10 9 9 8 8 8 9 8 8 8 8 8 8 8 8 8 7 7
12 11 16 15 21 24 22 21 20 16 16 14 14 13 12 12 11 11 11 11 11 11 11 11 11 11 11 11 11 11 11 11 10 10 10 10 10 9 9 9 9 9 9 8 9 9 8 8 7
13 14 13 13 16 21 24 21 17 16 15 15 13 12 11 11 10 10 10 11 11 11 12 12 12 11 11 11 11 11 11 11 11 10 10 10 10 10 9 9 9 9 9 9 8 9 8 8 8
11 13 13 16 18 18 18 19 14 15 14 13 12 11 11 10 10 9 9 10 10 10 10 11 11 11 11 11 11 11 11 11 11 11 10 10 10 9 9 9 9 9 10 9 9 10 10 10 10